Location: Adrasan
(36.3319°N, 30.4314°E)
Time: 11:07:14
(UTC+00:00)

ATLAS 2AS CENTAUR R/B - Pass Details

Date: 09 December 2023
Orbit: 1004 x 1207 km, 63.7° (Epoch: 18 February)

Event Time Altitude Azimuth Distance (km) Brightness Sun altitude
Rises 17:43:16 0° 316° (NW) 3,841 6.1 -35.5°
Reaches altitude 10° 17:46:23 10° 304° (WNW) 2,854 5.5 -36.1°
Maximum altitude 17:51:40 25° 251° (WSW) 1,913 4.5 -37.2°
Drops below altitude 10° 17:56:50 10° 198° (SSW) 2,775 5.0 -38.2°
Sets 17:59:50 0° 186° (S) 3,714 5.6 -38.8°
